N8YZF Weather Reports


Display with metric or nautical units.
time (UTC)temp
F
wind
direction
speed
MPH
gust
MPH
rain 1hr
in
rain 24hr
in
rain mn
in
humidity
%
barometer
mb
20260902170044 83 185 2.0 4.0 0.00 0.01 0.01 65 1010.8
20260902165543 83 192 3.0 6.0 0.00 0.01 0.01 65 1010.9
20260902165043 83 161 3.0 6.0 0.00 0.01 0.01 65 1010.9
20260902164527 83 163 2.0 5.0 0.00 0.01 0.01 65 1010.9
20260902164023 83 107 2.0 5.0 0.00 0.01 0.01 64 1011.0
20260902163522 83 183 3.0 6.0 0.00 0.01 0.01 65 1011.0
20260902163335 83 209 2.0 5.0 0.00 0.01 0.01 66 1011.0
20260902162516 82 211 1.0 5.0 0.00 0.01 0.01 68 1011.1
20260902162134 82 175 2.0 5.0 0.00 0.01 0.01 67 1011.0
20260902162109 82 188 2.0 5.0 0.00 0.01 0.01 68 1011.1
20260902161004 82 147 2.0 5.0 0.00 0.01 0.01 67 1011.0
20260902160503 82 182 2.0 5.0 0.00 0.01 0.01 67 1011.0
20260902160325 82 127 2.0 3.0 0.00 0.01 0.01 67 1011.2
20260902155505 82 193 1.0 4.0 0.00 0.01 0.01 67 1011.2
20260902155312 82 176 1.0 4.0 0.00 0.01 0.01 67 1011.2
20260902154446 81 296 1.0 2.0 0.00 0.01 0.01 66 1010.8
20260902153940 81 296 1.0 4.0 0.00 0.01 0.01 68 1010.8
20260902153439 82 211 2.0 5.0 0.00 0.01 0.01 66 1010.8
20260902152937 82 219 3.0 6.0 0.00 0.01 0.01 68 1010.7
20260902152745 82 197 2.0 6.0 0.00 0.01 0.01 68 1010.7
20260902151939 82 113 2.0 4.0 0.00 0.01 0.01 68 1010.7
20260902151428 81 80 2.0 6.0 0.00 0.01 0.01 67 1010.8
20260902150920 81 119 2.0 6.0 0.00 0.01 0.01 68 1010.8
20260902150724 81 122 1.0 4.0 0.00 0.01 0.01 68 1010.8
20260902145916 81 138 2.0 4.0 0.00 0.01 0.01 69 1010.8
20260902145415 81 163 1.0 4.0 0.00 0.01 0.01 69 1010.8
20260902144915 80 153 1.0 5.0 0.00 0.01 0.01 69 1010.7
20260902144414 80 148 1.0 5.0 0.00 0.01 0.01 69 1010.9
20260902143913 80 118 1.0 5.0 0.00 0.01 0.01 71 1010.9
20260902143413 80 94 2.0 5.0 0.00 0.01 0.01 70 1010.9
20260902142913 80 9 1.0 2.0 0.00 0.01 0.01 70 1011.1
20260902142406 80 5 1.0 3.0 0.00 0.01 0.01 74 1011.1
20260902141908 79 5 1.0 3.0 0.00 0.01 0.01 72 1011.0
20260902141410 78 29 1.0 2.0 0.00 0.01 0.01 76 1011.2
20260902140905 78 261 1.0 3.0 0.00 0.01 0.01 75 1011.1
20260902140405 78 261 1.0 3.0 0.00 0.01 0.01 76 1011.1
20260902135858 77 302 1.0 2.0 0.00 0.01 0.01 79 1011.2
20260902135719 77 207 0.0 2.0 0.00 0.01 0.01 82 1011.2
20260902134857 76 226 0.0 4.0 0.00 0.01 0.01 83 1011.1
20260902134352 75 279 1.0 4.0 0.00 0.01 0.01 84 1011.5
20260902133848 75 279 1.0 3.0 0.00 0.01 0.01 86 1011.4
20260902133345 74 286 1.0 4.0 0.00 0.01 0.01 86 1011.4
20260902132840 74 268 1.0 4.0 0.00 0.01 0.01 86 1011.9
20260902132339 74 0 0.0 2.0 0.00 0.01 0.01 88 1011.9
20260902132119 74 0 0.0 2.0 0.00 0.01 0.01 89 1011.9
20260902131321 73 261 0.0 1.0 0.00 0.01 0.01 91 1011.9
20260902130812 73 261 0.0 2.0 0.00 0.01 0.01 91 1011.8
20260902130306 73 261 0.0 2.0 0.01 0.01 0.01 92 1011.8
20260902125805 73 315 0.0 1.0 0.01 0.01 0.01 93 1011.8
20260902125612 73 315 1.0 4.0 0.01 0.01 0.01 93 1011.8
20260902125110 73 315 1.0 4.0 0.01 0.01 0.01 93 1011.8
20260902124301 73 287 1.0 4.0 0.01 0.01 0.01 94 1011.5
20260902123803 73 344 1.0 4.0 0.01 0.01 0.01 95 1011.5
20260902123243 73 327 1.0 4.0 0.01 0.01 0.01 95 1011.5
20260902122747 73 119 0.0 2.0 0.01 0.01 0.01 95 1011.0
20260902122521 73 117 0.0 0.0 0.01 0.01 0.01 95 1010.9
20260902121700 73 117 0.0 0.0 0.01 0.01 0.01 96 1010.9
20260902121153 72 117 0.0 0.0 0.01 0.01 0.01 96 1011.0
20260902120643 72 117 0.0 0.0 0.01 0.01 0.01 96 1011.0
20260902120144 72 117 0.0 0.0 0.00 0.00 0.00 96 1011.0
20260902115643 71 117 0.0 1.0 0.00 0.00 0.00 95 1010.8
20260902115132 71 117 0.0 1.0 0.00 0.00 0.00 95 1010.8
20260902114623 71 117 0.0 0.0 0.00 0.00 0.00 95 1010.7
20260902114426 71 117 0.0 0.0 0.00 0.00 0.00 95 1010.3
20260902113920 71 117 0.0 1.0 0.00 0.00 0.00 95 1010.3
20260902113105 71 117 1.0 2.0 0.00 0.00 0.00 95 1010.3
20260902112604 71 117 1.0 5.0 0.00 0.00 0.00 95 1010.4
20260902112052 71 124 0.0 5.0 0.00 0.00 0.00 95 1010.4
20260902111907 72 127 0.0 1.0 0.00 0.00 0.00 95 1010.4
20260902111042 72 127 0.0 1.0 0.00 0.00 0.00 94 1010.1
20260902110527 72 127 0.0 0.0 0.00 0.00 0.00 94 1010.1
20260902110008 72 127 0.0 2.0 0.00 0.00 0.00 94 1010.1
20260902105505 72 127 0.0 2.0 0.00 0.00 0.00 94 1010.1
20260902105003 72 155 0.0 2.0 0.00 0.00 0.00 94 1010.1
20260902104451 72 155 1.0 4.0 0.00 0.00 0.00 94 1010.3
20260902103953 72 155 1.0 4.0 0.00 0.00 0.00 94 1010.3
20260902103544 72 204 0.0 3.0 0.00 0.00 0.00 94 1010.5
20260902103521 72 203 0.0 0.0 0.00 0.00 0.00 94 1010.3
20260902102417 72 204 0.0 3.0 0.00 0.00 0.00 94 1010.5
20260902102231 72 146 0.0 0.0 0.00 0.00 0.00 94 1010.5
20260902101412 72 144 0.0 4.0 0.00 0.00 0.00 94 1010.5
20260902100907 72 144 1.0 4.0 0.00 0.00 0.00 94 1010.5
20260902100710 72 144 0.0 2.0 0.00 0.00 0.00 94 1010.5
20260902095905 72 109 0.0 0.0 0.00 0.00 0.00 93 1010.3
20260902095351 72 109 0.0 0.0 0.00 0.00 0.00 93 1010.3
20260902095155 72 109 0.0 0.0 0.00 0.00 0.00 93 1010.3
20260902094346 72 109 0.0 0.0 0.00 0.00 0.00 93 1010.8
20260902093840 72 109 0.0 0.0 0.00 0.00 0.00 93 1010.8
20260902093321 72 109 0.0 0.0 0.00 0.00 0.00 93 1010.8
20260902092819 72 96 0.0 0.0 0.00 0.00 0.00 93 1010.7
20260902092318 72 96 1.0 4.0 0.00 0.00 0.00 93 1010.7
20260902092118 72 96 1.0 4.0 0.00 0.00 0.00 93 1010.7
20260902091307 72 94 0.0 4.0 0.00 0.00 0.00 93 1010.8
20260902090805 72 103 0.0 0.0 0.00 0.00 0.00 93 1010.8
20260902090602 72 103 1.0 4.0 0.00 0.00 0.00 93 1010.8
20260902085759 72 103 1.0 4.0 0.00 0.00 0.00 93 1010.8
20260902085257 72 103 0.0 2.0 0.00 0.00 0.00 93 1010.8
20260902084756 72 132 0.0 2.0 0.00 0.00 0.00 93 1010.8
20260902084250 72 132 1.0 2.0 0.00 0.00 0.00 94 1010.4
20260902083745 72 132 1.0 4.0 0.00 0.00 0.00 94 1010.4
20260902083244 72 132 1.0 4.0 0.00 0.00 0.00 94 1010.4
20260902082747 72 159 1.0 4.0 0.00 0.00 0.00 94 1009.9
20260902082242 72 143 1.0 4.0 0.00 0.00 0.00 94 1009.9
20260902082036 72 115 0.0 1.0 0.00 0.00 0.00 95 1009.9
20260902081521 72 115 0.0 1.0 0.00 0.00 0.00 95 1009.6
20260902081022 72 115 0.0 1.0 0.00 0.00 0.00 95 1009.6
20260902080203 72 115 1.0 2.0 0.00 0.00 0.00 95 1009.6
20260902075654 72 115 1.0 2.0 0.00 0.00 0.00 95 1010.3
20260902075149 72 115 0.0 2.0 0.00 0.00 0.00 95 1010.3
20260902074644 72 115 0.0 0.0 0.00 0.00 0.00 95 1010.3
20260902074127 73 115 0.0 0.0 0.00 0.00 0.00 95 1010.4
20260902073625 73 115 0.0 0.0 0.00 0.00 0.00 95 1010.4
20260902073420 73 115 0.0 0.0 0.00 0.00 0.00 95 1010.5
20260902072610 73 115 0.0 0.0 0.00 0.00 0.00 95 1010.5
20260902072409 73 115 0.0 0.0 0.00 0.00 0.00 95 1010.5
20260902071552 73 115 0.0 0.0 0.00 0.00 0.00 95 1010.5
20260902071038 73 115 0.0 0.0 0.00 0.00 0.00 95 1010.4
20260902070531 73 115 0.0 0.0 0.00 0.00 0.00 95 1010.4
20260902070318 73 115 0.0 0.0 0.00 0.00 0.00 95 1010.4
20260902065508 73 115 0.0 0.0 0.00 0.00 0.00 95 1010.5
20260902065006 73 114 0.0 2.0 0.00 0.00 0.00 95 1010.5
20260902064503 73 114 0.0 2.0 0.00 0.00 0.00 95 1010.7
20260902063956 73 114 0.0 2.0 0.00 0.00 0.00 95 1010.7
20260902063451 73 114 0.0 1.0 0.00 0.00 0.00 95 1010.7
20260902062945 73 114 0.0 0.0 0.00 0.00 0.00 95 1010.7
20260902062437 73 114 0.0 0.0 0.00 0.00 0.00 95 1010.7
20260902061910 73 114 0.0 2.0 0.00 0.00 0.00 95 1010.7
20260902061704 73 114 0.0 2.0 0.00 0.00 0.00 95 1010.3
20260902060858 73 114 0.0 2.0 0.00 0.00 0.00 95 1010.3
20260902060708 73 114 0.0 1.0 0.00 0.00 0.00 95 1010.3
20260902055845 73 115 0.0 0.0 0.00 0.00 0.00 95 1010.3
20260902055342 74 115 0.0 0.0 0.00 0.00 0.00 95 1010.3
20260902054838 74 115 0.0 1.0 0.00 0.00 0.00 95 1010.3
20260902054329 74 115 0.0 2.0 0.00 0.00 0.00 95 1010.3
20260902053821 74 115 0.0 2.0 0.00 0.00 0.00 95 1010.3
20260902053320 74 115 0.0 1.0 0.00 0.00 0.00 95 1010.3
20260902052815 74 115 0.0 1.0 0.00 0.00 0.00 94 1010.3
20260902052308 74 115 0.0 1.0 0.00 0.00 0.00 94 1010.4
20260902051806 74 115 0.0 2.0 0.00 0.00 0.00 94 1010.4
20260902051308 74 115 1.0 2.0 0.00 0.00 0.00 94 1010.5
20260902051114 74 115 1.0 4.0 0.00 0.00 0.00 94 1010.6
20260902050256 74 114 1.0 4.0 0.00 0.00 0.00 94 1010.6
20260902045751 74 189 0.0 2.0 0.00 0.00 0.00 94 1010.8
20260902045255 74 189 0.0 2.0 0.00 0.00 0.00 94 1010.8
20260902044900 75 190 0.0 0.0 0.00 0.00 0.00 93 1010.9
20260902044828 75 190 0.0 0.0 0.00 0.00 0.00 93 1010.8
20260902043742 75 190 0.0 0.0 0.00 0.00 0.00 93 1010.9
20260902043541 75 190 0.0 1.0 0.00 0.00 0.00 93 1010.9
20260902042730 75 190 0.0 1.0 0.00 0.00 0.00 93 1010.9
20260902042215 75 190 0.0 0.0 0.00 0.00 0.00 92 1010.9
20260902041709 76 190 0.0 0.0 0.00 0.00 0.00 92 1010.9
20260902041208 76 190 0.0 0.0 0.00 0.00 0.00 93 1010.8
20260902040649 76 190 0.0 0.0 0.00 0.00 0.00 92 1010.8
20260902040145 76 190 0.0 0.0 0.00 0.00 0.00 92 1010.8
20260902035627 76 190 0.0 0.0 0.00 0.00 0.00 92 1010.8
20260902035120 76 190 0.0 0.0 0.00 0.00 0.00 92 1010.8
20260902034612 76 190 0.0 2.0 0.00 0.00 0.00 92 1010.8
20260902034109 77 190 0.0 2.0 0.00 0.00 0.00 92 1011.1
20260902033605 77 190 0.0 2.0 0.00 0.00 0.00 92 1011.1
20260902033103 77 190 0.0 2.0 0.00 0.00 0.00 92 1011.1
20260902032604 77 190 0.0 2.0 0.00 0.00 0.00 92 1011.1
20260902032057 77 190 0.0 2.0 0.00 0.00 0.00 91 1011.1
20260902031557 77 189 0.0 2.0 0.00 0.00 0.00 91 1011.1
20260902031057 77 192 0.0 2.0 0.00 0.00 0.00 91 1011.1
20260902030556 77 192 0.0 2.0 0.00 0.00 0.00 91 1011.1
20260902030056 77 192 1.0 3.0 0.00 0.00 0.00 91 1011.2
20260902025859 77 191 1.0 5.0 0.00 0.00 0.00 91 1010.9
20260902025051 77 153 1.0 5.0 0.00 0.00 0.00 91 1010.9
20260902024537 78 200 1.0 3.0 0.00 0.00 0.00 91 1010.9
20260902024038 78 205 1.0 3.0 0.00 0.00 0.00 90 1011.1
20260902023533 78 201 1.0 3.0 0.00 0.00 0.00 90 1011.1
20260902023027 78 202 1.0 3.0 0.00 0.00 0.00 90 1011.1
20260902022518 78 138 1.0 4.0 0.00 0.00 0.00 90 1011.2
20260902022016 78 209 1.0 4.0 0.00 0.00 0.00 90 1011.2
20260902021503 78 186 2.0 6.0 0.00 0.00 0.00 89 1011.2
20260902021309 78 188 1.0 6.0 0.00 0.00 0.00 89 1011.2
20260902020502 78 206 1.0 4.0 0.00 0.00 0.00 89 1011.2
20260902020303 78 208 1.0 4.0 0.00 0.00 0.00 88 1010.9
20260902015812 78 190 1.0 3.0 0.00 0.00 0.00 88 1010.9
20260902015105 78 176 0.0 1.0 0.00 0.00 0.00 87 1010.7
20260902015043 78 177 0.0 2.0 0.00 0.00 0.00 87 1010.9
20260902013944 79 182 0.0 0.0 0.00 0.00 0.00 86 1010.8
20260902013439 79 182 0.0 0.0 0.00 0.00 0.00 86 1010.8
20260902012935 79 182 0.0 0.0 0.00 0.00 0.00 86 1010.7
20260902012418 79 182 1.0 3.0 0.00 0.00 0.00 86 1010.7
20260902011911 79 182 1.0 3.0 0.00 0.00 0.00 85 1010.7
20260902011405 79 215 1.0 2.0 0.00 0.00 0.00 85 1010.7
20260902010851 80 197 1.0 2.0 0.00 0.00 0.00 84 1010.7
20260902010340 80 196 1.0 2.0 0.00 0.00 0.00 84 1010.7
20260902010154 80 186 0.0 2.0 0.00 0.00 0.00 83 1010.7
20260902005319 80 186 1.0 3.0 0.00 0.00 0.00 83 1010.8
20260902004809 80 186 1.0 3.0 0.00 0.00 0.00 82 1010.8
20260902004303 81 217 1.0 3.0 0.00 0.00 0.00 81 1010.8
20260902003803 81 217 1.0 5.0 0.00 0.00 0.00 81 1010.8
20260902003259 81 263 2.0 6.0 0.00 0.00 0.00 80 1010.8
20260902002749 82 196 1.0 6.0 0.00 0.00 0.00 80 1010.8
20260902002240 82 242 2.0 5.0 0.00 0.00 0.00 79 1010.9
20260902002031 82 241 1.0 5.0 0.00 0.00 0.00 79 1010.9
20260902001230 82 202 1.0 5.0 0.00 0.00 0.00 78 1010.9
20260902000712 83 209 1.0 5.0 0.00 0.00 0.00 78 1010.9
20260902000211 83 206 1.0 4.0 0.00 0.00 0.00 77 1010.9
20260901235756 83 217 1.0 3.0 0.00 0.00 0.00 77 1010.8
20260901235020 84 223 2.0 7.0 0.00 0.00 0.00 76 1010.9
20260901234200 84 209 2.0 7.0 0.00 0.00 0.00 75 1011.0
20260901233702 84 207 2.0 6.0 0.00 0.00 0.00 75 1011.0
20260901233201 84 209 2.0 6.0 0.00 0.00 0.00 74 1011.0
20260901233011 85 184 2.0 7.0 0.00 0.00 0.00 73 1011.0
20260901232152 85 192 3.0 11.0 0.00 0.00 0.00 72 1011.1
20260901231652 86 200 3.0 11.0 0.00 0.00 0.00 71 1011.1
20260901231148 87 215 3.0 11.0 0.00 0.00 0.00 70 1011.1
20260901230642 87 225 3.0 8.0 0.00 0.00 0.00 68 1011.1
20260901230145 87 269 3.0 8.0 0.00 0.00 0.00 68 1011.1
20260901225635 87 270 3.0 7.0 0.00 0.00 0.00 68 1011.1
20260901225131 87 239 3.0 7.0 0.00 0.00 0.00 67 1011.1
20260901224634 87 238 3.0 7.0 0.00 0.00 0.00 66 1011.1
20260901224438 88 203 3.0 9.0 0.00 0.00 0.00 66 1011.1
20260901223613 88 265 3.0 9.0 0.00 0.00 0.00 65 1011.1
20260901223111 88 192 3.0 6.0 0.00 0.00 0.00 65 1011.1
20260901222607 88 194 4.0 11.0 0.00 0.00 0.00 65 1011.1
20260901222105 88 213 4.0 11.0 0.00 0.00 0.00 65 1011.1
20260901221605 89 222 3.0 7.0 0.00 0.00 0.00 64 1011.2
20260901221102 89 225 3.0 7.0 0.00 0.00 0.00 64 1011.0
20260901220603 89 287 3.0 8.0 0.00 0.00 0.00 64 1011.0
20260901220112 89 202 3.0 8.0 0.00 0.00 0.00 65 1011.0
20260901215558 89 184 3.0 7.0 0.00 0.00 0.00 63 1010.9
20260901215058 89 219 2.0 6.0 0.00 0.00 0.00 63 1010.9
20260901214917 89 263 2.0 4.0 0.00 0.00 0.00 64 1010.9
20260901214058 89 202 2.0 4.0 0.00 0.00 0.00 64 1010.8
20260901213745 89 294 3.0 8.0 0.00 0.00 0.00 62 1010.8
20260901213704 89 148 3.0 8.0 0.00 0.00 0.00 63 1010.8
20260901212749 89 238 3.0 8.0 0.00 0.00 0.00 63 1010.8
20260901212703 89 242 3.0 8.0 0.00 0.00 0.00 64 1010.8
20260901211559 89 197 3.0 11.0 0.00 0.00 0.00 64 1010.8
20260901211412 89 208 3.0 11.0 0.00 0.00 0.00 63 1010.8
20260901210552 89 212 3.0 7.0 0.00 0.00 0.00 65 1010.8
20260901210430 88 156 2.0 7.0 0.00 0.00 0.00 65 1010.8
20260901205907 88 219 1.0 4.0 0.00 0.00 0.00 64 1010.9
20260901205042 88 255 2.0 7.0 0.00 0.00 0.00 64 1010.9
20260901204535 88 254 2.0 7.0 0.00 0.00 0.00 64 1010.9
20260901204032 89 205 2.0 5.0 0.00 0.00 0.00 62 1011.0
20260901203522 89 207 2.0 7.0 0.00 0.00 0.00 62 1011.0
20260901203020 89 279 2.0 7.0 0.00 0.00 0.00 61 1011.0
20260901202515 89 315 3.0 6.0 0.00 0.00 0.00 62 1011.1
20260901202200 89 257 2.0 5.0 0.00 0.00 0.00 62 1011.0
20260901202119 89 287 3.0 6.0 0.00 0.00 0.00 61 1011.1
20260901201007 89 283 2.0 5.0 0.00 0.00 0.00 62 1011.0
20260901200822 89 257 2.0 5.0 0.00 0.00 0.00 61 1011.0
20260901200335 89 196 2.0 5.0 0.00 0.00 0.00 62 1011.3
20260901195505 89 207 1.0 5.0 0.00 0.00 0.00 61 1011.3
20260901195005 89 209 2.0 5.0 0.00 0.00 0.00 64 1011.3
20260901194502 89 294 2.0 5.0 0.00 0.00 0.00 62 1011.3
20260901194326 90 215 2.0 5.0 0.00 0.00 0.00 61 1011.3
20260901193505 90 247 3.0 6.0 0.00 0.00 0.00 61 1011.3
20260901193001 89 206 4.0 8.0 0.00 0.00 0.00 61 1011.3
20260901192515 89 198 3.0 8.0 0.00 0.00 0.00 61 1011.3
20260901191958 89 264 3.0 7.0 0.00 0.00 0.00 61 1011.3
20260901191457 89 229 3.0 7.0 0.00 0.00 0.00 63 1011.4
20260901190958 89 229 3.0 7.0 0.00 0.00 0.00 63 1011.4
20260901190457 89 282 3.0 7.0 0.00 0.00 0.00 63 1011.4
20260901185956 89 284 3.0 8.0 0.00 0.00 0.00 64 1011.4
20260901185448 90 272 3.0 8.0 0.00 0.00 0.00 66 1011.4
20260901184949 89 244 3.0 6.0 0.00 0.00 0.00 66 1011.4
20260901184448 89 259 3.0 6.0 0.00 0.00 0.00 66 1011.4
20260901183948 88 243 3.0 9.0 0.00 0.00 0.00 66 1011.3
20260901183629 87 268 2.0 6.0 0.00 0.00 0.00 67 1011.4
20260901183548 88 267 3.0 9.0 0.00 0.00 0.00 66 1011.3
20260901182431 87 283 2.0 6.0 0.00 0.00 0.00 66 1011.4
20260901181928 87 182 2.0 6.0 0.00 0.00 0.00 68 1011.4
20260901181422 87 248 2.0 4.0 0.00 0.00 0.00 67 1011.3
20260901180924 87 277 2.0 5.0 0.00 0.00 0.00 69 1011.4
20260901180732 87 273 2.0 6.0 0.00 0.00 0.00 67 1011.4
20260901175911 87 215 2.0 6.0 0.00 0.00 0.00 68 1011.5
20260901175411 87 286 2.0 6.0 0.00 0.00 0.00 69 1011.5
20260901174910 88 264 2.0 6.0 0.00 0.00 0.00 69 1011.5
20260901174404 88 294 2.0 5.0 0.00 0.00 0.00 68 1011.5
20260901173903 88 276 3.0 6.0 0.00 0.00 0.00 70 1011.6
20260901173542 87 198 2.0 7.0 0.00 0.00 0.00 71 1011.8
20260901173506 87 221 3.0 7.0 0.00 0.00 0.00 71 1011.5
20260901172349 87 254 1.0 6.0 0.00 0.00 0.00 73 1011.8
20260901171846 87 294 2.0 5.0 0.00 0.00 0.00 71 1011.7
20260901171340 87 263 2.0 5.0 0.00 0.00 0.00 72 1011.8
20260901170836 86 258 2.0 6.0 0.00 0.00 0.00 73 1011.8
20260901170327 86 276 2.0 6.0 0.00 0.00 0.00 74 1011.8